Location: Newark
(51.7378°N, 19.8125°E)
Time: 01:34:38
(UTC+00:00)

Envisat - Pass Details

Date: 17 December 2019
Orbit: 764 x 766 km, 98.1° (Epoch: 23 January)

Event Time Altitude Azimuth Distance (km) Brightness Sun altitude
Rises 18:18:49 0° 226° (SW) 3,226 6.7 -33.8°
Reaches altitude 10° 18:23:09 10° 261° (W) 2,308 6.2 -34.4°
Maximum altitude 18:24:32 11° 277° (W) 2,240 6.2 -34.7°
Drops below altitude 10° 18:25:55 10° 293° (WNW) 2,313 6.2 -34.9°
Sets 18:30:17 0° 329° (NNW) 3,247 6.7 -35.5°
